Regional Weather Roundup
Issued by NWS Austin/San Antonio, TX

Home | Current Version | Previous Version | Text Only | Print | Product List | Glossary On
Versions: 1 2 3 4 5 6 7 8 9 10 11 12 13 14 15 16 17 18 19 20 21 22 23 24 25 26 27 28 29 30 31 32 33 34 35 36 37 38 39 40 41 42 43 44 45 46 47 48 49 50
000
ASUS44 KEWX 152102
RWREWX
SOUTH TEXAS REGIONAL WEATHER ROUNDUP
NATIONAL WEATHER SERVICE AUSTIN/SAN ANTONIO TX
400 PM CDT SAT JUN 15 2019

NOTE: "FAIR" INDICATED FEW OR NO CLOUDS BELOW 12,000 FEET WITH NO
SIGNIFICANT WEATHER AND/OR OBSTRUCTIONS TO VISIBILITY.

* - THESE STATIONS ARE NOT NWS OR FAA STATIONS...AND ARE NOT SUBJECT
    TO NWS AND FAA QUALITY CONTROL.

TXZ171-172-183>190-152200-
TEXAS HILL COUNTRY AND EDWARDS PLATEAU

CITY           SKY/WX    TMP DP  RH WIND       PRES   REMARKS
JUNCTION       LGT RAIN  92  68  45 S14       29.85F HX  96
*LLANO         MOSUNNY   93  70  46 S10G21    29.86F HX  99
BURNET         SUNNY     92  67  43 S14G29    29.87F HX  95
*HORSESHOE BAY PTSUNNY   93  66  40 S12G23    29.85F HX  96
*KERRVILLE     PTSUNNY   92  72  52 S17       29.88F HX  99
*FREDERICKSBRG PTSUNNY   88  65  46 S14G22    29.88F HX  90
*ROCKSPRINGS   SUNNY     86  72  62 S14G22    29.94F HX  92
*BOERNE STAGE  PTSUNNY   88  68  51 SE14      29.88F HX  91
*CASTROVILLE   SUNNY     95  60  30 S14       29.85F HX  95
HONDO          MOSUNNY   94  66  39 S20       29.83F HX  97
*UVALDE        SUNNY     93  70  46 SE13      29.82F HX  99
DEL RIO        SUNNY     94  72  48 SE14      29.78F HX 102
LAUGHLIN AFB   NOT AVBL
CARRIZO SPRGS  SUNNY    100  63  28 S14G20    29.76F HX 102
$$

TXZ173-191>194-202-209-217>225-228-152200-
CENTRAL AND SOUTH CENTRAL TEXAS

CITY           SKY/WX    TMP DP  RH WIND       PRES   REMARKS
GEORGETOWN     PTSUNNY   94  71  47 S16G26    29.86F HX 101
AUSTIN/BERGSTM MOSUNNY   95  70  44 S21       29.83F HX 101
AUSTIN/MABRY   MOSUNNY   93  70  46 S8G22     29.85F HX  99
*AUSTIN/EXEC   SUNNY     93  68  43 S12G22    29.85F HX  97
*LAGO VISTA    PTSUNNY   89  71  54 S13G21    29.87F HX  95
SAN MARCOS     SUNNY     95  71  45 S17       29.84F HX 102
NEW BRAUNFELS  MOSUNNY   94  68  42 S17G25    29.83F HX  98
RANDOLPH AFB   NOT AVBL
PT SAN ANTONIO NOT AVBL
SAN ANTONIO    MOSUNNY   93  66  40 S12G24    29.84F HX  96
STINSON FIELD  MOSUNNY   96  63  33 S15G24    29.81F HX  97
*LA GRANGE     MOSUNNY   94  75  54 S9        29.84F HX 105
*GIDDINGS      SUNNY     97  71  43 S14G21    29.86F HX 104
*GONZALES      MOSUNNY   95  75  52 S15G22    29.84S HX 106
$$

TXZ163>164-176>182-195>201-210>213-226-227-235-152200-
SOUTHEAST TEXAS

CITY           SKY/WX    TMP DP  RH WIND       PRES   REMARKS
COLLEGE STN    MOSUNNY   94  71  47 S15       29.85F HX 101
*BRYAN         MOSUNNY   95  73  49 S12G22    29.86F HX 104
*CALDWELL      MOSUNNY   94  72  48 S17G23    29.86F HX 101
*CROCKETT        N/A     91  72  52 S8G16     29.89F HX  98
*BRENHAM       MOSUNNY   93  71  48 S14G22    29.87S HX 100
HUNTSVILLE     SUNNY     95  70  44 S13G21    29.88S HX 101
CONROE         MOSUNNY   88  68  51 S24G38    29.91R THUNDER HX  91
HOUSTON BUSH   PTSUNNY   90  78  68 S9        29.90S HX 104
HOUSTON HOBBY  PTSUNNY   91  73  55 S21G29    29.90F HX  99
*HOUSTON SW AP PTSUNNY   87  75  66 S10G16    29.91F HX  97
PEARLAND       FAIR      91  71  51 S15G29    29.92F HX  97
HOUSTON HOOKS  FAIR      87  73  62 S8        29.89F HX  94
ELLINGTON FLD  PTSUNNY   91  73  55 S17       29.89F HX 100
SUGAR LAND     FAIR      90  74  59 S17G25    29.89F HX  99
*HOUSTON EXEC  FAIR      91  73  55 S21G29    29.90S HX 100
*CLEVELAND MUN FAIR      86  78  76 S21       29.92S HX  97
*WHARTON       PTSUNNY   88  71  56 S16G23    29.90F HX  93
*COLUMBUS      FAIR      92  67  43 S12G25    29.88S HX  95
*EAGLE LAKE    CLEAR     92  74  54 S22G29    29.88S HX 102
$$

TXZ214>216-236>238-152200-
THE UPPER TEXAS COAST

CITY           SKY/WX    TMP DP  RH WIND       PRES   REMARKS
*ORANGE        FAIR      88  79  74 S17       29.95F HX 103
PORT ARTHUR    FAIR      91  74  57 S13G23    29.93F HX 100
GALVESTON      FAIR      86  77  74 S20       29.93F HX  97
ANGLETON       FAIR      89  74  60 S17       29.92F HX  98
*BAY CITY      PTSUNNY   91  78  66 S12       29.90F HX 105
PALACIOS       SUNNY     91  74  57 S20G26    29.89F HX 100
$$

TXZ229>234-239>247-152200-
TEXAS COASTAL BEND AND RIO GRANDE PLAINS

CITY           SKY/WX    TMP DP  RH WIND       PRES   REMARKS
VICTORIA       MOSUNNY   91  75  59 SE22      29.87F HX 101
*BEEVILLE      MOSUNNY   97  70  41 SE21G28   29.84F HX 103
ROCKPORT       MOSUNNY   88  76  67 SE18G28   29.86F HX  99
*PORT ARANSAS    N/A     87  76  69 SE18      29.88F HX  98
*PORT LAVACA   MOSUNNY   91  77  62 S17G23    29.89S HX 104
*INGLESIDE     SUNNY     91  77  63 S23G30    29.86F HX 103
CORPUS CHRISTI MOSUNNY   91  76  61 S22G30    29.84F HX 103
CORPUS NAS     SUNNY     89  77  67 S23G31    29.85F HX 101
*ROBSTOWN      MOSUNNY   89  76  65 SE21      29.84F HX 101
ALICE          SUNNY     94  76  55 SE20G28   29.81F HX 106
KINGSVILLE NAS SUNNY     92  77  61 SE21G30   29.82F HX 105
COTULLA        LGT RAIN 101  60  25 SE16      29.78F HX 101
LAREDO         SUNNY    101  65  30 SE16G24   29.77F HX 104
$$

TXZ248>255-152200-
DEEP SOUTH TEXAS

CITY           SKY/WX    TMP DP  RH WIND       PRES   REMARKS
BROWNSVILLE    FAIR      94  75  54 SE22G31   29.84F HX 105
PORT ISABEL    FAIR      90  73  57 SE29G36   29.84F HX  98
HARLINGEN      MOSUNNY   94  72  48 S21G31    29.83F HX 102
*HEBBRONVILLE  MOSUNNY   97  61  29 S9G22     29.82F HX  97
MCALLEN        SUNNY     96  70  42 SE25G31   29.81F HX 102
*WESLACO       CLEAR     95  69  42 S15G25    29.82S HX 100
FALFURRIAS     MOSUNNY   99  66  34 S16       29.80F HX 102
EDINBURG       FAIR      98  64  32 SE15G26   29.82F HX 100
*ZAPATA        FAIR     101  61  26 S16G26    29.78F HX 102
$$

TXZ213>215-236>238-242>244-246-247-251-254-255-152200-
CMAN STATIONS

STATION/POSITION TIME  TEMP    WIND        PRES    WAVE
                       AIR SEA DIR/SP/G            HT/PER
                 (UTC) (F)     (DEG/KT/KT) (MB)    (FT/S)
PORT ARANSAS     2000   85 86  140/ 22/ 25 1011.8
$$



USA.gov is the U.S. government's official web portal to all federal, state and local government web resources and services.